Date String (YYYY-MM-DD hh:mm:ss) UTC,Instrument flags,absolute air pressure of the measurement (hPa),sample flow rate (lpm),inlet stack bypass flow (lpm),air temperature of the measurement (°C),ambient temperature measured by the external sensor (°C),aerosol sample conditioner tube jacket temperature (°C),OPC LED temperature (°C),internal box temperature (°C),relative humidity of the measurement (%),span deviation,mass concentration of particles derived from Lorenz-Mie calculation of OPC scattering (μg/m³),mass concentration of particles derived from Lorenz-Mie calculation of OPC scattering (μg/m³),mass concentration of particles derived from Lorenz-Mie calculation of OPC scattering (μg/m³)
DateTimeUTC,F1_M11,P_M11,Q1_M11,Q2_M11,T1_M11,T2_M11,T3_M11,T4_M11,T5_M11,U1_M11,ZSPAN_M11,X0_M11,X2_M11,X1_M11
2023-08-20 16:00:00,SystemResetWarning,0837.4,4.99,000.00,032.1,026.9,000.0,039.7,031.2,34.5,0002.0,0021.60,0014.04,0012.75
2023-08-20 16:01:00,SystemResetWarning,0837.4,4.99,000.00,032.1,025.8,000.0,039.6,031.1,34.3,0002.3,0021.32,0014.03,0012.75
2023-08-20 16:02:00,SystemResetWarning,0837.4,5.01,000.00,032.1,024.8,000.0,039.4,030.9,34.5,0002.2,0021.16,0014.02,0012.76
2023-08-20 16:03:00,SystemResetWarning,0837.3,5.00,000.00,032.0,024.8,000.0,039.4,030.8,35.0,0001.8,0021.17,0014.02,0012.76
2023-08-20 16:04:00,SystemResetWarning,0837.3,5.02,000.00,031.9,025.0,000.0,039.5,030.7,35.3,0001.7,0021.06,0014.00,0012.73
2023-08-20 16:05:00,SystemResetWarning,0837.4,4.99,000.00,032.0,025.4,000.0,039.5,030.9,35.3,0001.7,0020.93,0014.02,0012.73
2023-08-20 16:06:00,SystemResetWarning,0837.5,5.00,000.00,032.2,025.8,000.0,039.5,031.1,34.7,0001.8,0021.58,0014.05,0012.77
2023-08-20 16:07:00,SystemResetWarning,0837.5,4.98,000.00,032.4,026.2,000.0,039.6,031.1,34.3,0001.8,0021.88,0014.05,0012.79
2023-08-20 16:08:00,SystemResetWarning,0837.5,5.01,000.00,032.4,026.5,000.0,039.6,031.2,34.3,0001.4,0022.24,0014.13,0012.81
2023-08-20 16:09:00,SystemResetWarning,0837.5,5.01,000.00,032.4,026.8,000.0,039.7,031.2,34.1,0001.3,0022.31,0014.08,0012.80
2023-08-20 16:10:00,SystemResetWarning,0837.5,4.98,000.00,032.5,026.5,000.0,039.7,031.2,34.1,0001.5,0021.40,0014.02,0012.78
2023-08-20 16:11:00,SystemResetWarning,0837.4,4.99,000.00,032.4,025.3,000.0,039.6,030.9,34.1,0001.3,0021.43,0014.02,0012.79
2023-08-20 16:12:00,SystemResetWarning,0837.4,5.00,000.00,032.4,024.7,000.0,039.5,030.8,34.3,0001.0,0021.00,0014.02,0012.78
2023-08-20 16:13:00,SystemResetWarning,0837.5,5.00,000.00,032.2,024.8,000.0,039.5,030.7,34.8,0000.9,0020.81,0013.99,0012.77
2023-08-20 16:14:00,SystemResetWarning,0837.5,5.01,000.00,032.1,025.1,000.0,039.6,030.7,35.5,0001.1,0021.04,0013.96,0012.77
2023-08-20 16:15:00,SystemResetWarning,0837.4,5.01,000.00,032.1,025.5,000.0,039.6,030.8,35.4,0001.3,0021.02,0013.99,0012.81
2023-08-20 16:16:00,SystemResetWarning,0837.5,4.98,000.00,032.3,025.9,000.0,039.7,031.1,34.7,0001.0,0020.82,0014.00,0012.85
2023-08-20 16:17:00,SystemResetWarning,0837.5,4.99,000.00,032.4,026.2,000.0,039.7,031.1,34.3,0001.0,0020.12,0013.99,0012.87
2023-08-20 16:18:00,SystemResetWarning,0837.5,5.01,000.00,032.5,026.5,000.0,039.7,031.2,34.2,0001.0,0020.02,0014.01,0012.89
2023-08-20 16:19:00,SystemResetWarning,0837.6,5.00,000.00,032.5,026.7,000.0,039.8,031.2,33.9,0001.4,0020.44,0013.99,0012.89
2023-08-20 16:20:00,SystemResetWarning,0837.5,4.98,000.00,032.5,026.0,000.0,039.7,031.1,33.7,0001.8,0021.42,0014.01,0012.90
2023-08-20 16:21:00,SystemResetWarning,0837.5,5.01,000.00,032.5,024.9,000.0,039.6,030.8,33.7,0001.9,0021.77,0014.09,0012.94
2023-08-20 16:22:00,SystemResetWarning,0837.5,5.01,000.00,032.4,024.6,000.0,039.6,030.8,34.0,0002.0,0021.74,0014.14,0012.97
2023-08-20 16:23:00,SystemResetWarning,0837.4,5.00,000.00,032.2,024.8,000.0,039.6,030.7,34.3,0002.4,0021.69,0014.15,0013.00
2023-08-20 16:24:00,SystemResetWarning,0837.4,4.98,000.00,032.0,025.2,000.0,039.7,030.7,34.9,0002.2,0021.60,0014.13,0013.02
2023-08-20 16:25:00,SystemResetWarning,0837.4,5.01,000.00,031.9,025.6,000.0,039.7,030.8,35.3,0002.2,0021.38,0014.16,0013.02
2023-08-20 16:26:00,SystemResetWarning,0837.4,5.01,000.00,032.1,026.0,000.0,039.7,031.0,35.4,0002.4,0021.95,0014.17,0013.01
2023-08-20 16:27:00,SystemResetWarning,0837.4,5.01,000.00,032.3,026.3,000.0,039.7,031.2,35.0,0002.5,0022.57,0014.19,0013.01
2023-08-20 16:28:00,SystemResetWarning,0837.5,4.96,000.00,032.5,026.6,000.0,039.7,031.3,34.7,0002.4,0023.39,0014.21,0013.00
2023-08-20 16:29:00,SystemResetWarning,0837.5,5.01,000.00,032.7,025.9,000.0,039.6,031.2,34.0,0002.1,0023.96,0014.20,0012.98
2023-08-20 16:30:00,SystemResetWarning,0837.4,4.99,000.00,032.7,024.8,000.0,039.6,030.9,33.9,0002.2,0023.14,0014.19,0012.99
2023-08-20 16:31:00,SystemResetWarning,0837.5,5.01,000.00,032.7,024.6,000.0,039.5,030.9,33.5,0002.2,0022.00,0014.21,0013.00
2023-08-20 16:32:00,SystemResetWarning,0837.4,5.01,000.00,032.5,024.8,000.0,039.6,030.7,33.9,0002.2,0021.45,0014.18,0012.99
2023-08-20 16:33:00,SystemResetWarning,0837.4,5.00,000.00,032.3,025.1,000.0,039.7,030.7,34.6,0002.0,0021.57,0014.15,0012.99
2023-08-20 16:34:00,SystemResetWarning,0837.5,5.00,000.00,032.2,025.6,000.0,039.7,030.8,34.6,0001.6,0021.66,0014.15,0012.97
2023-08-20 16:35:00,SystemResetWarning,0837.5,4.98,000.00,032.1,025.9,000.0,039.8,030.9,35.0,0001.7,0021.71,0014.14,0012.95
2023-08-20 16:36:00,SystemResetWarning,0837.5,5.03,000.00,032.1,026.3,000.0,039.8,031.0,35.0,0001.8,0021.76,0014.13,0012.93
2023-08-20 16:37:00,SystemResetWarning,0837.5,4.97,000.00,032.2,026.6,000.0,039.8,031.2,34.6,0001.5,0021.49,0014.10,0012.92
2023-08-20 16:38:00,SystemResetWarning,0837.5,5.01,000.00,032.3,026.0,000.0,039.7,031.1,34.3,0001.4,0020.43,0014.07,0012.91
2023-08-20 16:39:00,SystemResetWarning,0837.6,5.01,000.00,032.4,024.9,000.0,039.6,030.9,34.2,0001.4,0019.84,0014.05,0012.90
2023-08-20 16:40:00,SystemResetWarning,0837.5,5.00,000.00,032.3,024.5,000.0,039.5,030.8,34.1,0001.7,0019.34,0014.10,0012.90
2023-08-20 16:41:00,SystemResetWarning,0837.5,4.98,000.00,032.1,024.7,000.0,039.5,030.6,34.7,0001.7,0019.40,0014.08,0012.89
2023-08-20 16:42:00,SystemResetWarning,0837.4,5.01,000.00,032.0,025.1,000.0,039.6,030.6,36.0,0001.3,0019.65,0014.09,0012.90
2023-08-20 16:43:00,SystemResetWarning,0837.4,5.02,000.00,032.1,025.5,000.0,039.6,030.8,36.1,0001.2,0019.95,0014.15,0012.91
2023-08-20 16:44:00,SystemResetWarning,0837.4,4.98,000.00,032.3,025.9,000.0,039.6,031.0,35.4,0001.3,0020.21,0014.11,0012.89
2023-08-20 16:45:00,SystemResetWarning,0837.5,5.01,000.00,032.6,026.3,000.0,039.7,031.2,34.7,0001.8,0021.15,0014.07,0012.87
2023-08-20 16:46:00,SystemResetWarning,0837.5,4.98,000.00,032.8,026.6,000.0,039.7,031.3,34.2,0001.8,0021.87,0014.06,0012.84
2023-08-20 16:47:00,SystemResetWarning,0837.5,4.99,000.00,032.9,026.6,000.0,039.8,031.3,34.0,0002.1,0021.92,0014.10,0012.84
2023-08-20 16:48:00,SystemResetWarning,0837.5,5.00,000.00,033.0,025.6,000.0,039.7,031.2,33.9,0002.3,0022.05,0014.10,0012.86
2023-08-20 16:49:00,SystemResetWarning,0837.4,5.00,000.00,033.0,024.7,000.0,039.7,031.0,33.5,0002.5,0022.05,0014.06,0012.84
2023-08-20 16:50:00,SystemResetWarning,0837.4,5.01,000.00,032.9,024.7,000.0,039.7,030.9,34.0,0002.4,0021.94,0014.02,0012.82
2023-08-20 16:51:00,SystemResetWarning,0837.4,5.01,000.00,032.7,024.9,000.0,039.8,030.7,34.2,0002.9,0021.82,0013.98,0012.80
2023-08-20 16:52:00,SystemResetWarning,0837.4,5.00,000.00,032.5,025.3,000.0,039.9,030.8,34.5,0002.8,0021.72,0013.98,0012.82
2023-08-20 16:53:00,SystemResetWarning,0837.4,4.99,000.00,032.4,025.8,000.0,039.9,030.9,34.8,0002.9,0022.06,0013.96,0012.81
2023-08-20 16:54:00,SystemResetWarning,0837.3,5.01,000.00,032.3,026.1,000.0,040.0,031.0,35.1,0002.9,0021.77,0013.89,0012.79
2023-08-20 16:55:00,SystemResetWarning,0837.4,4.98,000.00,032.4,026.4,000.0,040.0,031.1,34.5,0002.9,0021.22,0013.90,0012.80
2023-08-20 16:56:00,SystemResetWarning,0837.4,5.00,000.00,032.4,026.6,000.0,039.9,031.2,34.6,0002.5,0020.49,0013.94,0012.81
2023-08-20 16:57:00,SystemResetWarning,0837.4,5.01,000.00,032.5,025.6,000.0,039.8,031.1,34.6,0002.1,0019.84,0013.92,0012.82
2023-08-20 16:58:00,SystemResetWarning,0837.4,4.99,000.00,032.4,024.7,000.0,039.7,030.9,34.9,0002.1,0019.63,0013.85,0012.81
2023-08-20 16:59:00,SystemResetWarning,0837.4,5.02,000.00,032.4,024.7,000.0,039.7,030.8,34.6,0001.8,0019.80,0013.86,0012.81
